DW6162 Weather Reports


Display with metric or nautical units.
time (UTC)temp
F
wind
direction
speed
MPH
gust
MPH
rain 1hr
in
rain 24hr
in
rain mn
in
humidity
%
barometer
mb
20260831110003 62 155 0.0 0.0 0.00 0.00 0.00 98 1019.7
20260831105541 62 0 0.0 0.0 0.00 0.00 0.00 98 1021.6
20260831104641 62 0 0.0 0.0 0.00 0.00 0.00 98 1021.6
20260831104604 62 138 0.0 0.0 0.00 0.00 0.00 98 1019.5
20260831103741 62 0 0.0 0.0 0.00 0.00 0.00 98 1021.5
20260831103002 62 159 0.0 0.0 0.00 0.00 0.00 98 1019.6
20260831101941 62 0 0.0 0.0 0.00 0.00 0.00 98 1021.4
20260831101602 62 142 0.0 0.0 0.00 0.00 0.00 98 1019.3
20260831101041 62 0 0.0 0.0 0.00 0.00 0.00 98 1021.3
20260831100141 62 0 0.0 0.0 0.00 0.00 0.00 98 1021.3
20260831100003 62 142 0.0 0.0 0.00 0.00 0.00 98 1019.2
20260831095241 62 0 0.0 0.0 0.00 0.00 0.00 98 1021.3
20260831094605 62 143 0.0 0.0 0.00 0.00 0.00 98 1019.3
20260831094341 62 0 0.0 0.0 0.00 0.00 0.00 98 1021.4
20260831093441 62 0 0.0 0.0 0.00 0.00 0.00 98 1021.4
20260831093002 62 142 0.0 0.0 0.00 0.00 0.00 98 1019.3
20260831092541 62 0 0.0 0.0 0.00 0.00 0.00 98 1021.4
20260831091641 62 0 0.0 0.0 0.00 0.00 0.00 98 1021.3
20260831091605 62 142 0.0 0.0 0.00 0.00 0.00 98 1019.2
20260831090002 62 143 0.0 0.0 0.00 0.00 0.00 98 1019.2
20260831084941 62 0 0.0 0.0 0.00 0.00 0.00 98 1021.5
20260831084609 62 142 0.0 0.0 0.00 0.00 0.00 98 1019.4
20260831084041 62 0 0.0 0.0 0.00 0.00 0.00 98 1021.5
20260831083003 62 142 0.0 0.0 0.00 0.00 0.00 98 1019.3
20260831081606 61 142 0.0 0.0 0.00 0.00 0.00 98 1019.4
20260831081341 62 0 0.0 0.0 0.00 0.00 0.00 98 1021.6
20260831080441 62 0 0.0 0.0 0.00 0.00 0.00 97 1021.4
20260831080004 61 143 0.0 0.0 0.00 0.00 0.00 97 1019.2
20260831075541 62 0 0.0 0.0 0.00 0.00 0.00 97 1021.3
20260831074641 62 0 0.0 0.0 0.00 0.00 0.00 97 1021.3
20260831074606 62 143 0.0 0.0 0.00 0.00 0.00 97 1019.1
20260831073741 62 0 0.0 0.0 0.00 0.00 0.00 97 1021.3
20260831073007 62 142 0.0 0.0 0.00 0.00 0.00 97 1019.5
20260831071941 62 0 0.0 0.0 0.00 0.00 0.00 97 1021.7
20260831071607 62 142 0.0 0.0 0.00 0.00 0.00 97 1019.5
20260831071041 62 0 0.0 0.0 0.00 0.00 0.00 97 1021.6
20260831070002 62 142 0.0 0.0 0.00 0.00 0.00 97 1019.6
20260831065241 62 0 0.0 0.0 0.00 0.00 0.00 97 1021.8
20260831064607 61 145 0.0 0.0 0.00 0.00 0.00 97 1019.6
20260831063003 61 146 0.0 0.0 0.00 0.00 0.00 97 1019.5
20260831062541 62 0 0.0 0.0 0.00 0.00 0.00 97 1021.6
20260831061641 62 0 0.0 0.0 0.00 0.00 0.00 97 1021.5
20260831061602 61 146 0.0 0.0 0.00 0.00 0.00 97 1019.4
20260831060741 62 0 0.0 0.0 0.00 0.00 0.00 96 1021.4
20260831060002 61 145 0.0 0.0 0.00 0.00 0.00 96 1019.4
20260831054941 62 0 0.0 0.0 0.00 0.00 0.00 96 1021.7
20260831054604 62 145 0.0 0.0 0.00 0.00 0.00 96 1019.6
20260831054041 62 0 0.0 0.0 0.00 0.00 0.00 96 1021.8
20260831053141 62 0 0.0 0.0 0.00 0.00 0.00 96 1021.9
20260831053003 62 145 0.0 0.0 0.00 0.00 0.00 96 1019.8
20260831052241 62 0 0.0 0.0 0.00 0.00 0.00 95 1022.0
20260831051603 62 145 0.0 0.0 0.00 0.00 0.00 95 1020.0
20260831051341 62 0 0.0 0.0 0.00 0.00 0.00 95 1022.1
20260831050441 63 0 0.0 0.0 0.00 0.00 0.00 95 1022.1
20260831050002 62 146 0.0 0.0 0.00 0.00 0.00 95 1020.1
20260831045541 63 0 0.0 0.0 0.00 0.00 0.00 95 1022.3
20260831044641 63 0 0.0 0.0 0.00 0.00 0.00 95 1022.2
20260831044606 62 144 0.0 0.0 0.00 0.00 0.00 95 1020.1
20260831043741 63 0 0.0 0.0 0.00 0.00 0.00 94 1022.2
20260831043002 63 145 0.0 0.0 0.00 0.00 0.00 94 1020.2
20260831042841 63 0 0.0 0.0 0.00 0.00 0.00 94 1022.3
20260831041610 63 145 0.0 0.0 0.00 0.00 0.00 94 1020.2
20260831041041 63 0 0.0 0.0 0.00 0.00 0.00 93 1022.3
20260831040141 64 0 0.0 0.0 0.00 0.00 0.00 93 1022.2
20260831040003 63 145 0.0 0.0 0.00 0.00 0.00 93 1020.1
20260831035241 64 0 0.0 0.0 0.00 0.00 0.00 92 1022.2
20260831034609 63 140 0.0 0.0 0.00 0.00 0.00 92 1020.1
20260831034340 64 0 0.0 0.0 0.00 0.00 0.00 92 1022.3
20260831033441 64 0 0.0 0.0 0.00 0.00 0.00 92 1022.4
20260831033003 64 139 0.0 0.0 0.00 0.00 0.00 91 1020.4
20260831032541 64 0 0.0 0.0 0.00 0.00 0.00 91 1022.4
20260831031641 64 0 0.0 0.0 0.00 0.00 0.00 90 1022.5
20260831031605 64 138 0.0 0.0 0.00 0.00 0.00 90 1020.4
20260831030741 64 0 0.0 0.0 0.00 0.00 0.00 90 1022.4
20260831030002 64 153 0.0 0.0 0.00 0.00 0.00 90 1020.3
20260831025841 64 0 0.0 0.0 0.00 0.00 0.00 90 1022.4
20260831024941 64 0 0.0 0.0 0.00 0.00 0.00 91 1022.4
20260831024608 63 153 0.0 0.0 0.00 0.00 0.00 91 1020.3
20260831024041 64 0 0.0 0.0 0.00 0.00 0.00 91 1022.4
20260831023140 64 0 0.0 0.0 0.00 0.00 0.00 91 1022.3
20260831023002 64 154 0.0 0.0 0.00 0.00 0.00 91 1020.1
20260831022241 64 0 0.0 0.0 0.00 0.00 0.00 91 1022.3
20260831021603 63 153 0.0 0.0 0.00 0.00 0.00 91 1020.1
20260831021341 64 0 0.0 0.0 0.00 0.00 0.00 91 1022.2
20260831020441 64 0 0.0 0.0 0.00 0.00 0.00 92 1022.3
20260831020002 63 153 0.0 0.0 0.00 0.00 0.00 92 1020.2
20260831015540 63 0 0.0 0.0 0.00 0.00 0.00 92 1022.3
20260831014641 64 0 0.0 0.0 0.00 0.00 0.00 91 1022.3
20260831014602 63 153 0.0 0.0 0.00 0.00 0.00 91 1020.2
20260831013002 64 154 0.0 0.0 0.00 0.00 0.00 91 1020.0
20260831012841 64 0 0.0 0.0 0.00 0.00 0.00 91 1022.2
20260831011941 64 0 0.0 0.0 0.00 0.00 0.00 91 1022.2
20260831011603 64 153 0.0 0.0 0.00 0.00 0.00 90 1020.1
20260831011040 64 0 0.0 0.0 0.00 0.00 0.00 90 1022.2
20260831010004 64 154 0.0 0.0 0.00 0.00 0.00 90 1019.9
20260831005241 64 0 0.0 0.0 0.00 0.00 0.00 90 1022.0
20260831004610 64 153 0.0 0.0 0.00 0.00 0.00 90 1019.8
20260831004340 65 0 0.0 0.0 0.00 0.00 0.00 90 1021.8
20260831003441 65 59 0.0 2.0 0.00 0.00 0.00 90 1021.9
20260831003005 65 32 0.0 2.0 0.00 0.00 0.00 89 1019.6
20260831001640 65 6 1.0 4.0 0.00 0.00 0.00 88 1021.4
20260831001602 65 25 1.0 3.0 0.00 0.00 0.00 88 1019.3
20260831000740 65 357 1.0 4.0 0.00 0.00 0.00 88 1021.4
20260831000002 65 27 0.0 3.0 0.00 0.00 0.00 88 1019.2
20260830235840 66 357 0.0 3.0 0.00 0.00 0.00 88 1021.3
20260830234941 66 3 0.0 2.0 0.00 0.00 0.00 87 1021.4
20260830234603 66 341 0.0 1.0 0.00 0.00 0.00 87 1019.2
20260830233140 67 2 1.0 2.0 0.00 0.00 0.00 88 1021.0
20260830233002 66 341 0.0 2.0 0.00 0.00 0.00 88 1019.0
20260830231602 67 22 0.0 1.0 0.00 0.00 0.00 88 1018.8
20260830230441 67 355 0.0 1.0 0.00 0.00 0.00 88 1021.1
20260830230003 67 356 0.0 1.0 0.00 0.00 0.00 88 1019.0
20260830225540 68 1 1.0 2.0 0.00 0.00 0.00 88 1021.2
20260830224640 68 1 1.0 2.0 0.00 0.00 0.00 87 1021.3
20260830224608 67 22 0.0 2.0 0.00 0.00 0.00 87 1019.2
20260830223740 68 19 1.0 5.0 0.00 0.00 0.00 87 1021.5
20260830223005 68 304 1.0 4.0 0.00 0.00 0.00 87 1019.3
20260830222840 68 51 1.0 5.0 0.00 0.00 0.00 87 1021.4
20260830221940 68 7 0.0 1.0 0.00 0.00 0.00 88 1021.3
20260830221602 67 276 0.0 1.0 0.00 0.00 0.00 88 1019.1
20260830221040 68 115 0.0 2.0 0.00 0.00 0.00 89 1021.3
20260830220140 68 134 0.0 2.0 0.00 0.00 0.00 89 1021.3
20260830220003 67 145 0.0 1.0 0.00 0.00 0.00 90 1019.1
20260830215240 67 75 0.0 1.0 0.00 0.00 0.00 90 1021.3
20260830214604 67 75 0.0 1.0 0.00 0.00 0.00 90 1019.1
20260830214340 67 63 0.0 1.0 0.00 0.00 0.00 91 1021.3
20260830213440 67 19 0.0 2.0 0.00 0.00 0.00 89 1021.4
20260830213004 67 27 0.0 1.0 0.00 0.00 0.00 89 1019.4
20260830212540 67 38 1.0 3.0 0.00 0.00 0.00 89 1021.5
20260830211606 67 9 0.0 5.0 0.00 0.00 0.00 87 1019.3
20260830210003 68 316 2.0 6.0 0.00 0.00 0.00 86 1019.3
20260830205840 68 53 1.0 5.0 0.00 0.00 0.00 86 1021.4
20260830204604 68 4 0.0 4.0 0.00 0.00 0.00 85 1019.2
20260830203002 69 145 1.0 5.0 0.00 0.00 0.00 84 1019.2
20260830202240 69 56 1.0 5.0 0.00 0.00 0.00 85 1021.3
20260830201340 69 98 1.0 3.0 0.00 0.00 0.00 85 1021.3
20260830200440 69 92 1.0 3.0 0.00 0.00 0.00 84 1021.4
20260830200003 69 135 0.0 3.0 0.00 0.00 0.00 85 1019.2
20260830195540 70 61 1.0 3.0 0.00 0.00 0.00 83 1021.3
20260830194640 70 80 1.0 4.0 0.00 0.00 0.00 82 1021.5
20260830194612 70 33 1.0 4.0 0.00 0.00 0.00 82 1019.3
20260830193741 70 24 1.0 6.0 0.00 0.00 0.00 81 1021.4
20260830193004 70 51 1.0 6.0 0.00 0.00 0.00 80 1019.3
20260830192840 70 43 1.0 7.0 0.00 0.00 0.00 80 1021.4
20260830191940 70 28 1.0 6.0 0.00 0.00 0.00 80 1021.6
20260830191604 70 32 1.0 6.0 0.00 0.00 0.00 80 1019.3
20260830191040 71 40 2.0 6.0 0.00 0.00 0.00 80 1021.4
20260830190140 71 87 1.0 4.0 0.00 0.00 0.00 79 1021.6
20260830185240 71 51 1.0 4.0 0.00 0.00 0.00 79 1021.8
20260830184502 71 5 2.0 4.0 0.00 0.00 0.00 77 1019.5
20260830184340 71 44 1.0 5.0 0.00 0.00 0.00 77 1021.8
20260830183440 72 21 2.0 6.0 0.00 0.00 0.00 76 1021.8
20260830183106 71 26 2.0 6.0 0.00 0.00 0.00 76 1019.6
20260830181640 72 48 2.0 3.0 0.00 0.00 0.00 75 1021.9
20260830181503 72 27 1.0 3.0 0.00 0.00 0.00 76 1019.6
20260830174940 72 67 2.0 6.0 0.00 0.00 0.00 76 1021.8
20260830174505 72 147 1.0 3.0 0.00 0.00 0.00 76 1019.6
20260830174040 72 62 1.0 3.0 0.00 0.00 0.00 76 1022.0
20260830173140 74 38 1.0 4.0 0.00 0.00 0.00 72 1021.9
20260830173103 73 78 0.0 3.0 0.00 0.00 0.00 72 1019.6
20260830172240 75 18 1.0 5.0 0.00 0.00 0.00 72 1022.0
20260830171503 75 71 0.0 2.0 0.00 0.00 0.00 71 1019.8
20260830170440 75 90 0.0 2.0 0.00 0.00 0.00 74 1022.1
20260830165540 74 61 1.0 4.0 0.00 0.00 0.00 76 1022.2
20260830164640 74 57 1.0 4.0 0.00 0.00 0.00 73 1022.3
20260830164504 73 65 1.0 3.0 0.00 0.00 0.00 74 1020.0
20260830163740 74 86 1.0 4.0 0.00 0.00 0.00 73 1022.4
20260830163105 74 222 0.0 3.0 0.00 0.00 0.00 74 1020.3
20260830162840 74 145 1.0 4.0 0.00 0.00 0.00 73 1022.3
20260830161940 74 244 1.0 4.0 0.00 0.00 0.00 72 1022.2
20260830161503 73 205 0.0 3.0 0.00 0.00 0.00 75 1020.3
20260830161040 73 170 0.0 3.0 0.00 0.00 0.00 75 1022.4
20260830160140 71 91 0.0 3.0 0.00 0.00 0.00 76 1022.6
20260830160105 71 74 0.0 3.0 0.00 0.00 0.00 76 1020.5
20260830155240 70 111 1.0 5.0 0.00 0.00 0.00 79 1022.8
20260830154506 69 103 0.0 1.0 0.00 0.00 0.00 79 1020.8
20260830154340 70 186 0.0 1.0 0.00 0.00 0.00 80 1022.9
20260830153440 69 158 0.0 2.0 0.00 0.00 0.00 79 1022.9
20260830153105 69 144 0.0 2.0 0.00 0.00 0.00 79 1020.8
20260830152540 69 149 0.0 2.0 0.00 0.00 0.00 78 1022.8
20260830151506 69 199 0.0 1.0 0.00 0.00 0.00 80 1020.6
20260830150740 69 99 0.0 2.0 0.00 0.00 0.00 80 1022.9
20260830145840 68 158 0.0 1.0 0.00 0.00 0.00 80 1022.8
20260830144940 68 159 0.0 2.0 0.00 0.00 0.00 80 1022.8
20260830144503 67 150 0.0 3.0 0.00 0.00 0.00 79 1020.8
20260830144040 68 184 0.0 3.0 0.00 0.00 0.00 79 1022.8
20260830143140 68 173 0.0 1.0 0.00 0.00 0.00 80 1022.6
20260830143102 67 166 0.0 1.0 0.00 0.00 0.00 80 1020.5
20260830142240 67 130 0.0 2.0 0.00 0.00 0.00 80 1022.6
20260830141502 67 109 0.0 2.0 0.00 0.00 0.00 79 1020.5
20260830141340 67 179 0.0 2.0 0.00 0.00 0.00 79 1022.7
20260830140440 67 160 0.0 2.0 0.00 0.00 0.00 80 1022.7
20260830140116 66 176 0.0 2.0 0.00 0.00 0.00 80 1020.6
20260830135540 66 161 0.0 1.0 0.00 0.00 0.00 80 1022.4
20260830134640 66 0 0.0 0.0 0.00 0.00 0.00 81 1022.4
20260830134508 65 176 0.0 1.0 0.00 0.00 0.00 81 1020.5
20260830133740 65 0 0.0 0.0 0.00 0.00 0.00 81 1022.4
20260830133102 64 179 0.0 1.0 0.00 0.00 0.00 81 1020.6
20260830132840 65 163 0.0 1.0 0.00 0.00 0.00 81 1022.4
20260830131503 64 163 0.0 1.0 0.00 0.00 0.00 81 1020.7
20260830131040 65 90 0.0 1.0 0.00 0.00 0.00 83 1022.6
20260830130140 64 189 0.0 2.0 0.00 0.00 0.00 82 1022.6
20260830125240 63 204 0.0 2.0 0.00 0.00 0.00 84 1022.6
20260830124502 61 207 0.0 0.0 0.00 0.00 0.00 85 1021.0
20260830123440 61 0 0.0 0.0 0.00 0.00 0.00 85 1023.0
20260830123103 61 207 0.0 0.0 0.00 0.00 0.00 84 1021.2
20260830122540 61 0 0.0 0.0 0.00 0.00 0.00 84 1023.1
20260830121640 61 0 0.0 0.0 0.00 0.00 0.00 84 1023.0
20260830121503 61 207 0.0 0.0 0.00 0.00 0.00 84 1021.1
20260830120740 61 0 0.0 0.0 0.00 0.00 0.00 86 1022.8
20260830120109 60 207 0.0 0.0 0.00 0.00 0.00 87 1021.3
20260830115840 61 0 0.0 0.0 0.00 0.00 0.00 86 1022.9
20260830114940 60 0 0.0 0.0 0.00 0.00 0.00 87 1022.8
20260830114503 60 207 0.0 0.0 0.00 0.00 0.00 87 1021.1
20260830114040 60 0 0.0 0.0 0.00 0.00 0.00 86 1022.7
20260830113105 59 207 0.0 0.0 0.00 0.00 0.00 85 1021.2
20260830112240 60 0 0.0 0.0 0.00 0.00 0.00 85 1022.9
20260830111504 59 207 0.0 0.0 0.00 0.00 0.00 86 1021.3
20260830110440 60 208 0.0 1.0 0.00 0.00 0.00 84 1022.8